Weather History for Grove, OK

Change the Weather History Date:

Monday, September 30, 2013

  Actual Average (KSLG) Record (KSLG)
Temperature  
Mean Temperature 68 °F -  
Max Temperature 82 °F 73 °F 86 °F (2002)
Min Temperature 55 °F 51 °F 37 °F (1999)
Cooling Degree Days 4    
Growing Degree Days 18 (Base 50)    
Moisture  
Dew Point 61 °F    
Average Humidity 82    
Maximum Humidity 100    
Minimum Humidity 45    
Precipitation  
Precipitation 0.00 in - - ()
Sea Level Pressure  
Sea Level Pressure 29.91 in    
Wind  
Wind Speed 2 mph (South)    
Max Wind Speed 12 mph    
Max Gust Speed -    
Visibility 7 miles    
Events Fog    
Averages and records for this station are not official NWS values.
T = Trace of Precipitation, MM = Missing Value Source: NWS Daily Summary

Daily Weather History Graph

Daily Weather History Graph

Search for Another Location

Airport:

Trip Planner

Search our weather history database for the weather conditions in past years. The results will help you decide how hot, cold, wet, or windy it might be!

Date:

Astronomy

Sep. 30, 2013 Rise Set
Actual Time 7:13 AM CDT 7:03 PM CDT
Civil Twilight 6:47 AM CDT 7:29 PM CDT
Nautical Twilight 6:17 AM CDT 7:59 PM CDT
Astronomical Twilight 5:47 AM CDT 8:29 PM CDT
Moon 2:57 AM CDT 4:29 PM CDT
Length of Visible Light 12h 41m
Length of Day
11h 49m
Waning Crescent, 19% of the Moon is Illuminated
Sep 30
Waning Crescent
Oct 4
New
Oct 11
First Quarter
Oct 18
Full
Oct 26
Last Quarter

Hourly Weather History & Observations

Time (CDT) Temp. Heat Index Dew Point Humidity Pressure Visibility Wind Dir Wind Speed Gust Speed Precip Events Conditions
12:15 AM 57.2 °F - 57.2 °F 100% 29.97 in 10.0 mi Calm Calm - N/A   Clear
12:35 AM 55.4 °F - 55.4 °F 100% 29.96 in 10.0 mi Calm Calm - N/A   Clear
12:55 AM 55.4 °F - 55.4 °F 100% 29.95 in 7.0 mi Calm Calm - N/A   Clear
1:15 AM 55.4 °F - 55.4 °F 100% 29.95 in 7.0 mi Calm Calm - N/A   Clear
1:35 AM 55.4 °F - 55.4 °F 100% 29.94 in 7.0 mi Calm Calm - N/A   Clear
1:55 AM 55.4 °F - 55.4 °F 100% 29.94 in 7.0 mi Calm Calm - N/A   Clear
2:15 AM 55.4 °F - 55.4 °F 100% 29.94 in 7.0 mi Calm Calm - N/A   Clear
2:35 AM 55.4 °F - 55.4 °F 100% 29.93 in 7.0 mi Calm Calm - N/A   Clear
2:55 AM 55.4 °F - 55.4 °F 100% 29.93 in 10.0 mi Calm Calm - N/A   Clear
3:15 AM 55.4 °F - 55.4 °F 100% 29.92 in 7.0 mi Calm Calm - N/A   Clear
3:35 AM 55.4 °F - 55.4 °F 100% 29.92 in 7.0 mi Calm Calm - N/A   Clear
3:55 AM 55.4 °F - 55.4 °F 100% 29.92 in 7.0 mi Calm Calm - N/A   Clear
4:15 AM 55.4 °F - 55.4 °F 100% 29.92 in 5.0 mi Calm Calm - N/A   Scattered Clouds
4:35 AM 55.4 °F - 55.4 °F 100% 29.93 in 3.0 mi Calm Calm - N/A   Scattered Clouds
4:55 AM 55.4 °F - 55.4 °F 100% 29.93 in 5.0 mi Calm Calm - N/A   Scattered Clouds
5:15 AM 55.4 °F - 55.4 °F 100% 29.93 in 5.0 mi Calm Calm - N/A   Scattered Clouds
5:35 AM 55.4 °F - 55.4 °F 100% 29.93 in 7.0 mi Calm Calm - N/A   Scattered Clouds
5:55 AM 55.4 °F - 55.4 °F 100% 29.93 in 4.0 mi Calm Calm - N/A   Mostly Cloudy
6:15 AM 57.2 °F - 57.2 °F 100% 29.94 in 5.0 mi Calm Calm - N/A   Mostly Cloudy
6:35 AM 55.4 °F - 55.4 °F 100% 29.94 in 10.0 mi Calm Calm - N/A   Scattered Clouds
6:55 AM 55.4 °F - 55.4 °F 100% 29.93 in 5.0 mi Calm Calm - N/A   Clear
7:15 AM 55.4 °F - 55.4 °F 100% 29.93 in 3.0 mi Calm Calm - N/A   Clear
7:35 AM 55.4 °F - 55.4 °F 100% 29.94 in 3.0 mi Calm Calm - N/A   Scattered Clouds
7:55 AM 57.2 °F - 57.2 °F 100% 29.94 in 2.5 mi Calm Calm - N/A   Overcast
8:15 AM 59.0 °F - 59.0 °F 100% 29.94 in 1.0 mi Calm Calm - N/A   Overcast
8:35 AM 60.8 °F - 60.8 °F 100% 29.94 in 0.2 mi Calm Calm - N/A Fog Fog
8:55 AM 62.6 °F - 62.6 °F 100% 29.94 in 0.2 mi Calm Calm - N/A Fog Fog
9:15 AM 64.4 °F - 64.4 °F 100% 29.94 in 0.5 mi SSE 4.6 mph - N/A Fog Fog
9:35 AM 68.0 °F - 68.0 °F 100% 29.94 in 2.5 mi SSE 3.5 mph - N/A   Scattered Clouds
9:55 AM 68.0 °F - 68.0 °F 100% 29.93 in 5.0 mi South 6.9 mph - N/A   Scattered Clouds
10:15 AM 69.8 °F - 69.8 °F 100% 29.94 in 5.0 mi South 5.8 mph - N/A   Mostly Cloudy
10:35 AM 69.8 °F - 69.8 °F 100% 29.94 in 4.0 mi SSE 6.9 mph - N/A   Overcast
10:55 AM 69.8 °F - 69.8 °F 100% 29.95 in 3.0 mi South 5.8 mph - N/A   Overcast
11:15 AM 73.4 °F - 68.0 °F 83% 29.95 in 7.0 mi SSW 4.6 mph - N/A   Overcast
11:35 AM 73.4 °F - 69.8 °F 88% 29.94 in 10.0 mi SSW 6.9 mph - N/A   Scattered Clouds
11:55 AM 75.2 °F - 66.2 °F 73% 29.93 in 10.0 mi SSW 6.9 mph - N/A   Clear
12:15 PM 77.0 °F - 62.6 °F 61% 29.93 in 10.0 mi South 5.8 mph - N/A   Clear
12:35 PM 78.8 °F - 62.6 °F 57% 29.92 in 7.0 mi SSE 5.8 mph - N/A   Scattered Clouds
12:55 PM 77.0 °F - 60.8 °F 57% 29.92 in 10.0 mi SSE 4.6 mph - N/A   Scattered Clouds
1:15 PM 78.8 °F - 60.8 °F 54% 29.91 in 10.0 mi Calm Calm - N/A   Scattered Clouds
1:35 PM 78.8 °F - 60.8 °F 54% 29.90 in 10.0 mi SSW 4.6 mph - N/A   Clear
1:55 PM 80.6 °F 81.5 °F 60.8 °F 51% 29.89 in 10.0 mi South 4.6 mph - N/A   Scattered Clouds
2:15 PM 80.6 °F 81.5 °F 60.8 °F 51% 29.88 in 10.0 mi Calm Calm - N/A   Clear
2:35 PM 80.6 °F 81.5 °F 60.8 °F 51% 29.88 in 10.0 mi South 6.9 mph - N/A   Clear
2:55 PM 82.4 °F 82.9 °F 60.8 °F 48% 29.87 in 10.0 mi South 8.1 mph - N/A   Clear
3:15 PM 82.4 °F 82.9 °F 60.8 °F 48% 29.86 in 10.0 mi SSW 6.9 mph - N/A   Clear
3:35 PM 82.4 °F 82.5 °F 59.0 °F 45% 29.86 in 10.0 mi SSE 9.2 mph - N/A   Clear
3:55 PM 82.4 °F 82.5 °F 59.0 °F 45% 29.86 in 10.0 mi South 9.2 mph - N/A   Clear
4:15 PM 82.4 °F 82.9 °F 60.8 °F 48% 29.86 in 10.0 mi South 8.1 mph - N/A   Clear
4:35 PM 82.4 °F 82.9 °F 60.8 °F 48% 29.86 in 10.0 mi SSW 8.1 mph - N/A   Clear
4:55 PM 82.4 °F 82.9 °F 60.8 °F 48% 29.86 in 10.0 mi South 11.5 mph - N/A   Clear
5:15 PM 82.4 °F 82.9 °F 60.8 °F 48% 29.86 in 10.0 mi SSE 9.2 mph - N/A   Clear
5:35 PM 80.6 °F 81.1 °F 59.0 °F 48% 29.86 in 10.0 mi South 9.2 mph - N/A   Clear
5:55 PM 80.6 °F 81.1 °F 59.0 °F 48% 29.86 in 10.0 mi South 9.2 mph - N/A   Clear
6:15 PM 80.6 °F 81.5 °F 60.8 °F 51% 29.86 in 10.0 mi South 5.8 mph - N/A   Clear
6:35 PM 78.8 °F - 60.8 °F 54% 29.86 in 10.0 mi South 3.5 mph - N/A   Clear
6:55 PM 77.0 °F - 60.8 °F 57% 29.86 in 10.0 mi Calm Calm - N/A   Clear
7:15 PM 73.4 °F - 62.6 °F 69% 29.86 in 10.0 mi Calm Calm - N/A   Scattered Clouds
7:35 PM 73.4 °F - 64.4 °F 73% 29.87 in 10.0 mi SSE 3.5 mph - N/A   Mostly Cloudy
7:55 PM 73.4 °F - 62.6 °F 69% 29.87 in 7.0 mi SSE 3.5 mph - N/A   Mostly Cloudy
8:15 PM 73.4 °F - 64.4 °F 73% 29.88 in 7.0 mi SSE 3.5 mph - N/A   Mostly Cloudy
8:35 PM 71.6 °F - 64.4 °F 78% 29.88 in 7.0 mi SE 3.5 mph - N/A   Scattered Clouds
8:55 PM 69.8 °F - 64.4 °F 83% 29.88 in 7.0 mi SE 3.5 mph - N/A   Scattered Clouds
9:15 PM 69.8 °F - 64.4 °F 83% 29.89 in 7.0 mi SE 3.5 mph - N/A   Scattered Clouds
9:35 PM 69.8 °F - 64.4 °F 83% 29.89 in 7.0 mi SE 3.5 mph - N/A   Scattered Clouds
9:55 PM 68.0 °F - 64.4 °F 88% 29.89 in 7.0 mi SSE 3.5 mph - N/A   Scattered Clouds
10:15 PM 69.8 °F - 64.4 °F 83% 29.90 in 7.0 mi SSE 4.6 mph - N/A   Scattered Clouds
10:35 PM 69.8 °F - 66.2 °F 88% 29.90 in 5.0 mi SE 3.5 mph - N/A   Clear
10:55 PM 68.0 °F - 68.0 °F 100% 29.91 in 5.0 mi SE 3.5 mph - N/A   Clear
11:15 PM 68.0 °F - 68.0 °F 100% 29.91 in 5.0 mi Calm Calm - N/A   Clear
11:35 PM 68.0 °F - 68.0 °F 100% 29.90 in 5.0 mi SSE 3.5 mph - N/A   Clear
11:55 PM 68.0 °F - 68.0 °F 100% 29.90 in 10.0 mi SE 3.5 mph - N/A   Clear